カタログに戻る

STARLINK-4098

運用中通信VLEO
NORAD 53153·PAYLOAD·🇺🇸 United States

打ち上げ Jul 17, 2022 から Cape Canaveral Space Force Station

Loading…

次のパス (今後24時間)

TLE

最新Source: CelesTrak SupGP

元期: Sep 15, 2026, 02:31 UTC

1 53153C 22083X   26258.10534722 -.00009461  00000+0 -27960-3 0  2585
2 53153  53.1597  28.6577 0001180  82.3226  49.7431 15.34386535    19

AllMySatでSTARLINK-4098をリアルタイム追跡

Download on the App Store